Location: �mondeville
(49.4591°N, 1.3431°W)
Time: 19:25:15
(UTC+00:00)

BREEZE-M R/B - Pass Details

Date: 22 October 2019
Orbit: 308 x 4553 km, 49.7° (Epoch: 11 November)

Event Time Altitude Azimuth Distance (km) Brightness Sun altitude
Exits shadow 03:43:48 85° 116° (ESE) 869 3.6 -28.5°
Drops below altitude 10° 03:52:25 10° 82° (E) 3,899 8.1 -27.2°
Sets 03:57:07 0° 82° (E) 5,627 9.2 -26.5°
